BEL9EU EBBR-ENGM

Flight info

Callsign BEL9EU
Flight time 1h 34m
Altitude 39000
Route NIK L191 VICOT N873 JUIST DCT AFPIN DCT LUTIR DCT AAL N866 INVOL DCT SABAK/N0448F380 L997 LUNIP
Aircraft A20N/M-SDE2E3FGHIRWXY/LB1

Departure

Time 2026-05-07 16:56
Airport Brussels Airport (EBBR)

Arrival

Time 2026-05-07 18:30
Airport Oslo-Gardermoen International Airport (ENGM)
Time Latitude Longitude Altitude Speed Heading
2026-05-07 16:35 50.90465 4.48786 121 ft 0 kts 155°
2026-05-07 16:46 50.90476 4.48779 122 ft 2 kts 155°
2026-05-07 16:46 50.90491 4.48768 118 ft 2 kts 155°
2026-05-07 16:47 50.90506 4.48757 118 ft 2 kts 155°
2026-05-07 16:47 50.90521 4.48746 118 ft 2 kts 156°
2026-05-07 16:47 50.90536 4.48731 116 ft 2 kts 125°
2026-05-07 16:47 50.90542 4.48708 117 ft 2 kts 90°
2026-05-07 16:48 50.90542 4.48698 118 ft 0 kts 77°
2026-05-07 16:49 50.90544 4.48712 117 ft 5 kts 75°
2026-05-07 16:49 50.90567 4.48801 117 ft 12 kts 67°
2026-05-07 16:50 50.90608 4.48942 119 ft 13 kts 65°
2026-05-07 16:50 50.90654 4.49101 114 ft 19 kts 66°
2026-05-07 16:50 50.90697 4.49252 118 ft 3 kts 65°
2026-05-07 16:50 50.90714 4.49311 117 ft 8 kts 65°
2026-05-07 16:51 50.90746 4.49421 118 ft 14 kts 64°
2026-05-07 16:51 50.90760 4.49468 116 ft 0 kts 65°
2026-05-07 16:51 50.90768 4.49497 119 ft 5 kts 66°
2026-05-07 16:51 50.90769 4.49500 119 ft 0 kts 66°
2026-05-07 16:52 50.90770 4.49502 116 ft 1 kts 66°
2026-05-07 16:52 50.90780 4.49540 117 ft 6 kts 66°
2026-05-07 16:52 50.90802 4.49618 121 ft 10 kts 65°
2026-05-07 16:53 50.90844 4.49738 116 ft 16 kts 39°
2026-05-07 16:53 50.90928 4.49796 112 ft 9 kts 30°
2026-05-07 16:53 50.90997 4.49876 112 ft 16 kts 33°
2026-05-07 16:53 50.91105 4.49940 107 ft 13 kts 348°
2026-05-07 16:54 50.91128 4.49848 107 ft 7 kts 250°
2026-05-07 16:54 50.91125 4.49838 108 ft 0 kts 246°
2026-05-07 16:54 50.91125 4.49837 108 ft 0 kts 246°
2026-05-07 16:55 50.91119 4.49815 109 ft 4 kts 246°
2026-05-07 16:55 50.91074 4.49659 113 ft 33 kts 245°
2026-05-07 16:55 50.90881 4.48991 116 ft 99 kts 245°
2026-05-07 16:55 50.90506 4.47695 120 ft 159 kts 245°
2026-05-07 16:56 50.90019 4.45988 507 ft 174 kts 247°
2026-05-07 16:56 50.89522 4.44233 1124 ft 181 kts 249°
2026-05-07 16:56 50.89804 4.40313 2056 ft 200 kts 325°
2026-05-07 16:57 50.91056 4.39184 2487 ft 219 kts 335°
2026-05-07 16:57 50.92581 4.38371 2980 ft 241 kts 347°
2026-05-07 16:57 50.94228 4.37625 3549 ft 250 kts 342°
2026-05-07 16:57 50.95866 4.36636 4110 ft 253 kts 338°
2026-05-07 16:58 50.97465 4.35466 4674 ft 254 kts 335°
2026-05-07 16:58 50.99047 4.34181 5238 ft 255 kts 333°
2026-05-07 16:58 51.00595 4.32852 5736 ft 258 kts 332°
2026-05-07 16:58 51.02166 4.31464 6067 ft 262 kts 331°
2026-05-07 16:59 51.03824 4.29979 6425 ft 285 kts 330°
2026-05-07 16:59 51.05621 4.28353 6762 ft 309 kts 330°
2026-05-07 16:59 51.07558 4.26593 7196 ft 330 kts 330°
2026-05-07 16:59 51.09585 4.24743 7859 ft 342 kts 330°
2026-05-07 17:00 51.11682 4.22827 8487 ft 354 kts 330°
2026-05-07 17:00 51.13862 4.20831 9125 ft 366 kts 330°
2026-05-07 17:00 51.16109 4.18772 9776 ft 376 kts 329°
2026-05-07 17:00 51.18329 4.16494 10356 ft 381 kts 325°
2026-05-07 17:01 51.20489 4.14026 10939 ft 385 kts 323°
2026-05-07 17:01 51.22638 4.11447 11521 ft 389 kts 322°
2026-05-07 17:01 51.24810 4.08814 12125 ft 394 kts 323°
2026-05-07 17:01 51.27217 4.06696 12842 ft 399 kts 338°
2026-05-07 17:02 51.29937 4.05624 13486 ft 405 kts 349°
2026-05-07 17:02 51.32751 4.05135 14118 ft 410 kts 355°
2026-05-07 17:02 51.35619 4.04966 14708 ft 414 kts 358°
2026-05-07 17:02 51.38512 4.04957 15309 ft 418 kts 359°
2026-05-07 17:03 51.41399 4.04998 15932 ft 422 kts 359°
2026-05-07 17:03 51.44346 4.05037 16577 ft 425 kts 359°
2026-05-07 17:03 51.47304 4.05497 17236 ft 429 kts
2026-05-07 17:03 51.50203 4.06790 17779 ft 436 kts 17°
2026-05-07 17:04 51.53056 4.08531 18333 ft 441 kts 21°
2026-05-07 17:04 51.55878 4.10508 18835 ft 446 kts 23°
2026-05-07 17:04 51.58716 4.12632 19292 ft 450 kts 24°
2026-05-07 17:04 51.61552 4.14805 19771 ft 454 kts 24°
2026-05-07 17:05 51.64410 4.16999 20230 ft 458 kts 24°
2026-05-07 17:05 51.67278 4.19186 20676 ft 461 kts 24°
2026-05-07 17:05 51.70228 4.21415 21160 ft 465 kts 24°
2026-05-07 17:05 51.73175 4.23629 21619 ft 468 kts 23°
2026-05-07 17:06 51.76098 4.25820 22058 ft 472 kts 23°
2026-05-07 17:06 51.79093 4.28063 22507 ft 475 kts 23°
2026-05-07 17:06 51.82116 4.30331 22962 ft 479 kts 24°
2026-05-07 17:06 51.85149 4.32611 23408 ft 483 kts 24°
2026-05-07 17:07 51.88178 4.34892 23808 ft 486 kts 24°
2026-05-07 17:07 51.91284 4.37234 24172 ft 489 kts 24°
2026-05-07 17:07 51.94370 4.39565 24544 ft 491 kts 24°
2026-05-07 17:07 51.97487 4.41925 24900 ft 494 kts 24°
2026-05-07 17:08 52.00443 4.44166 25324 ft 494 kts 24°
2026-05-07 17:08 52.03553 4.46529 25802 ft 493 kts 24°
2026-05-07 17:08 52.06624 4.48865 26281 ft 492 kts 24°
2026-05-07 17:08 52.09713 4.51219 26756 ft 491 kts 24°
2026-05-07 17:09 52.12814 4.53585 27248 ft 490 kts 24°
2026-05-07 17:09 52.15892 4.55937 27731 ft 489 kts 24°
2026-05-07 17:09 52.18973 4.58295 28189 ft 488 kts 24°
2026-05-07 17:09 52.22042 4.60647 28647 ft 487 kts 24°
2026-05-07 17:10 52.25114 4.63005 29104 ft 487 kts 24°
2026-05-07 17:10 52.28174 4.65356 29547 ft 486 kts 24°
2026-05-07 17:10 52.31228 4.67706 29993 ft 485 kts 24°
2026-05-07 17:10 52.34273 4.70053 30092 ft 482 kts 24°
2026-05-07 17:11 52.40349 4.74746 30099 ft 484 kts 24°
2026-05-07 17:11 52.46442 4.79465 30099 ft 485 kts 24°
2026-05-07 17:12 52.52404 4.84663 30098 ft 486 kts 34°
2026-05-07 17:12 52.57293 4.92217 30098 ft 487 kts 49°
2026-05-07 17:13 52.61586 5.00845 30107 ft 487 kts 52°
2026-05-07 17:13 52.65748 5.09667 30116 ft 488 kts 52°
2026-05-07 17:14 52.67833 5.14104 30318 ft 490 kts 52°
2026-05-07 17:14 52.69930 5.18553 30756 ft 488 kts 52°
2026-05-07 17:14 52.72014 5.22962 31151 ft 486 kts 52°
2026-05-07 17:14 52.74095 5.27357 31492 ft 485 kts 52°
2026-05-07 17:15 52.76141 5.31681 31863 ft 484 kts 52°
2026-05-07 17:15 52.78215 5.36064 32171 ft 484 kts 52°
2026-05-07 17:15 52.80282 5.40442 32496 ft 483 kts 52°
2026-05-07 17:15 52.82346 5.44820 32822 ft 482 kts 52°
2026-05-07 17:16 52.84404 5.49196 33158 ft 481 kts 52°
2026-05-07 17:16 52.86460 5.53576 33497 ft 480 kts 52°
2026-05-07 17:16 52.88502 5.57934 33820 ft 479 kts 52°
2026-05-07 17:16 52.90551 5.62312 34108 ft 479 kts 52°
2026-05-07 17:17 52.92589 5.66676 34355 ft 479 kts 52°
2026-05-07 17:17 52.94624 5.71043 34590 ft 478 kts 52°
2026-05-07 17:17 52.96657 5.75411 34791 ft 479 kts 52°
2026-05-07 17:17 52.98689 5.79785 34974 ft 480 kts 52°
2026-05-07 17:18 53.00721 5.84166 35192 ft 479 kts 52°
2026-05-07 17:18 53.02730 5.88506 35405 ft 479 kts 52°
2026-05-07 17:18 53.04794 5.92973 35572 ft 480 kts 52°
2026-05-07 17:18 53.06805 5.97332 35757 ft 481 kts 52°
2026-05-07 17:19 53.08836 6.01742 35944 ft 481 kts 52°
2026-05-07 17:19 53.10873 6.06174 36132 ft 481 kts 52°
2026-05-07 17:19 53.12904 6.10600 36303 ft 481 kts 52°
2026-05-07 17:19 53.14939 6.15043 36482 ft 482 kts 52°
2026-05-07 17:20 53.16276 6.17966 36587 ft 482 kts 53°
2026-05-07 17:20 53.18317 6.22434 36765 ft 482 kts 53°
2026-05-07 17:20 53.20347 6.26887 36918 ft 483 kts 53°
2026-05-07 17:20 53.22379 6.31349 37081 ft 483 kts 53°
2026-05-07 17:21 53.24405 6.35809 37257 ft 483 kts 53°
2026-05-07 17:21 53.26436 6.40288 37411 ft 483 kts 53°
2026-05-07 17:21 53.28475 6.44791 37566 ft 484 kts 53°
2026-05-07 17:21 53.30505 6.49282 37709 ft 484 kts 53°
2026-05-07 17:22 53.32526 6.53762 37881 ft 484 kts 53°
2026-05-07 17:22 53.34654 6.58157 38022 ft 484 kts 46°
2026-05-07 17:22 53.37027 6.62144 38152 ft 484 kts 44°
2026-05-07 17:22 53.39430 6.65994 38301 ft 484 kts 43°
2026-05-07 17:23 53.41896 6.69842 38446 ft 485 kts 42°
2026-05-07 17:23 53.44420 6.73727 38588 ft 485 kts 42°
2026-05-07 17:23 53.46877 6.77497 38721 ft 485 kts 42°
2026-05-07 17:23 53.49372 6.81328 38826 ft 486 kts 42°
2026-05-07 17:24 53.54347 6.88998 39030 ft 486 kts 42°
2026-05-07 17:24 53.56950 6.92611 39184 ft 480 kts 37°
2026-05-07 17:24 53.59601 6.95970 39342 ft 476 kts 36°
2026-05-07 17:25 53.62319 6.99161 39162 ft 475 kts 30°
2026-05-07 17:25 53.65181 7.01928 39104 ft 474 kts 29°
2026-05-07 17:25 53.70967 7.07261 39093 ft 475 kts 27°
2026-05-07 17:26 53.76805 7.12501 39094 ft 474 kts 27°
2026-05-07 17:26 53.82652 7.17741 39094 ft 474 kts 27°
2026-05-07 17:27 53.88463 7.22977 39096 ft 474 kts 27°
2026-05-07 17:27 53.94254 7.28222 39102 ft 473 kts 28°
2026-05-07 17:28 54.00061 7.33501 39100 ft 473 kts 28°
2026-05-07 17:28 54.05866 7.38794 39103 ft 473 kts 28°
2026-05-07 17:29 54.11667 7.44100 39108 ft 473 kts 28°
2026-05-07 17:29 54.17464 7.49420 39114 ft 473 kts 28°
2026-05-07 17:30 54.23222 7.54720 39113 ft 472 kts 28°
2026-05-07 17:30 54.29000 7.60056 39116 ft 472 kts 28°
2026-05-07 17:31 54.34773 7.65404 39119 ft 472 kts 28°
2026-05-07 17:31 54.40550 7.70774 39110 ft 472 kts 28°
2026-05-07 17:32 54.46329 7.76162 39111 ft 472 kts 28°
2026-05-07 17:32 54.52067 7.81530 39112 ft 472 kts 28°
2026-05-07 17:33 54.57832 7.86940 39114 ft 471 kts 28°
2026-05-07 17:33 54.63599 7.92370 39123 ft 471 kts 28°
2026-05-07 17:34 54.69352 7.97805 39124 ft 471 kts 28°
2026-05-07 17:34 54.75103 8.03255 39123 ft 471 kts 28°
2026-05-07 17:35 54.80860 8.08728 39123 ft 471 kts 28°
2026-05-07 17:35 54.86602 8.14205 39131 ft 471 kts 28°
2026-05-07 17:36 54.92349 8.19705 39129 ft 471 kts 28°
2026-05-07 17:36 54.98057 8.25186 39129 ft 471 kts 28°
2026-05-07 17:37 55.03794 8.30713 39132 ft 471 kts 28°
2026-05-07 17:37 55.09527 8.36254 39123 ft 471 kts 28°
2026-05-07 17:38 55.15262 8.41815 39122 ft 471 kts 28°
2026-05-07 17:38 55.20986 8.47384 39116 ft 471 kts 28°
2026-05-07 17:39 55.26728 8.52989 39118 ft 471 kts 28°
2026-05-07 17:39 55.32400 8.58545 39120 ft 470 kts 28°
2026-05-07 17:40 55.38124 8.64169 39126 ft 471 kts 28°
2026-05-07 17:40 55.43842 8.69808 39126 ft 471 kts 28°
2026-05-07 17:41 55.49547 8.75451 39127 ft 470 kts 28°
2026-05-07 17:41 55.55249 8.81111 39127 ft 470 kts 28°
2026-05-07 17:42 55.60955 8.86794 39123 ft 470 kts 28°
2026-05-07 17:42 55.66636 8.92471 39131 ft 469 kts 28°
2026-05-07 17:43 55.72301 8.98151 39128 ft 469 kts 29°
2026-05-07 17:43 55.77979 9.03863 39129 ft 469 kts 29°
2026-05-07 17:44 55.83654 9.09592 39126 ft 469 kts 29°
2026-05-07 17:44 55.89333 9.15344 39127 ft 469 kts 28°
2026-05-07 17:45 55.95018 9.21122 39120 ft 469 kts 29°
2026-05-07 17:45 56.00683 9.26899 39078 ft 469 kts 28°
2026-05-07 17:46 56.06363 9.32712 39070 ft 469 kts 29°
2026-05-07 17:46 56.11974 9.38473 39078 ft 469 kts 29°
2026-05-07 17:47 56.17634 9.44305 39081 ft 469 kts 29°
2026-05-07 17:47 56.23285 9.50146 39081 ft 469 kts 29°
2026-05-07 17:48 56.28936 9.56009 39079 ft 469 kts 29°
2026-05-07 17:48 56.34592 9.61897 39071 ft 469 kts 29°
2026-05-07 17:49 56.40246 9.67803 39067 ft 469 kts 28°
2026-05-07 17:49 56.45882 9.73711 39067 ft 469 kts 28°
2026-05-07 17:50 56.51528 9.79649 39063 ft 469 kts 28°
2026-05-07 17:50 56.57177 9.85613 39068 ft 469 kts 28°
2026-05-07 17:51 56.62787 9.91555 39071 ft 470 kts 28°
2026-05-07 17:51 56.68466 9.97590 39070 ft 470 kts 28°
2026-05-07 17:52 56.74072 10.03571 39077 ft 470 kts 28°
2026-05-07 17:52 56.79722 10.09618 39088 ft 470 kts 28°
2026-05-07 17:53 56.85368 10.15683 39098 ft 471 kts 28°
2026-05-07 17:53 56.91020 10.21776 39102 ft 471 kts 28°
2026-05-07 17:54 56.96643 10.27859 39102 ft 471 kts 28°
2026-05-07 17:54 57.02274 10.33972 39103 ft 472 kts 28°
2026-05-07 17:55 57.07935 10.40141 39105 ft 472 kts 28°
2026-05-07 17:55 57.13591 10.46325 39098 ft 472 kts 28°
2026-05-07 17:56 57.19488 10.51507 39096 ft 467 kts 14°
2026-05-07 17:56 57.25746 10.54433 39103 ft 466 kts
2026-05-07 17:57 57.31076 10.56492 39104 ft 466 kts
2026-05-07 17:57 57.38464 10.59222 39108 ft 467 kts
2026-05-07 17:58 57.44847 10.61623 39107 ft 467 kts
2026-05-07 17:58 57.51220 10.64061 39111 ft 467 kts
2026-05-07 17:59 57.57590 10.66519 39110 ft 468 kts
2026-05-07 17:59 57.63966 10.68988 39110 ft 468 kts
2026-05-07 18:00 57.70310 10.71450 39113 ft 468 kts
2026-05-07 18:00 57.76697 10.73938 39117 ft 469 kts
2026-05-07 18:01 57.83087 10.76525 39117 ft 469 kts
2026-05-07 18:01 57.89457 10.79224 39117 ft 469 kts
2026-05-07 18:02 57.99028 10.83278 39119 ft 470 kts
2026-05-07 18:03 58.05406 10.85986 39123 ft 470 kts
2026-05-07 18:03 58.11797 10.88708 39122 ft 470 kts
2026-05-07 18:04 58.18180 10.91437 39127 ft 470 kts
2026-05-07 18:04 58.24571 10.94178 39129 ft 471 kts
2026-05-07 18:05 58.30917 10.96911 39131 ft 471 kts
2026-05-07 18:05 58.37314 10.99676 39133 ft 471 kts
2026-05-07 18:06 58.43708 11.02449 39130 ft 471 kts
2026-05-07 18:06 58.49037 11.04771 38647 ft 466 kts
2026-05-07 18:06 58.52160 11.06134 38106 ft 467 kts
2026-05-07 18:07 58.55331 11.07519 37559 ft 468 kts
2026-05-07 18:07 58.58504 11.08909 37027 ft 468 kts
2026-05-07 18:07 58.61680 11.10303 36504 ft 466 kts
2026-05-07 18:07 58.64831 11.11689 36000 ft 464 kts
2026-05-07 18:08 58.67970 11.13072 35501 ft 462 kts
2026-05-07 18:08 58.71149 11.14475 34921 ft 461 kts
2026-05-07 18:08 58.74222 11.15834 34358 ft 459 kts
2026-05-07 18:08 58.77327 11.17209 33736 ft 457 kts
2026-05-07 18:09 58.80424 11.18583 33081 ft 456 kts
2026-05-07 18:09 58.83525 11.19959 32450 ft 457 kts
2026-05-07 18:09 58.86633 11.21341 31836 ft 459 kts
2026-05-07 18:09 58.89760 11.22734 31220 ft 462 kts
2026-05-07 18:10 58.92900 11.24137 30630 ft 464 kts
2026-05-07 18:10 58.96063 11.25553 30016 ft 465 kts
2026-05-07 18:10 58.99199 11.26961 29332 ft 463 kts
2026-05-07 18:10 59.02336 11.28375 28645 ft 459 kts
2026-05-07 18:11 59.05434 11.29773 28002 ft 455 kts
2026-05-07 18:11 59.08501 11.31159 27366 ft 450 kts
2026-05-07 18:11 59.11510 11.32521 26740 ft 445 kts
2026-05-07 18:11 59.14512 11.33881 26131 ft 441 kts
2026-05-07 18:12 59.17499 11.35186 25527 ft 435 kts
2026-05-07 18:12 59.20474 11.35847 24941 ft 426 kts 358°
2026-05-07 18:12 59.23421 11.36107 24368 ft 421 kts 356°
2026-05-07 18:12 59.26340 11.36276 23802 ft 417 kts 356°
2026-05-07 18:13 59.29233 11.36408 23161 ft 413 kts 356°
2026-05-07 18:13 59.32099 11.36521 22497 ft 409 kts 356°
2026-05-07 18:13 59.34900 11.36623 21856 ft 406 kts 356°
2026-05-07 18:13 59.37712 11.36721 21225 ft 402 kts 356°
2026-05-07 18:14 59.40497 11.36816 20603 ft 398 kts 356°
2026-05-07 18:14 59.43255 11.36908 20001 ft 395 kts 356°
2026-05-07 18:14 59.45995 11.37000 19405 ft 391 kts 356°
2026-05-07 18:14 59.48704 11.37090 18823 ft 388 kts 356°
2026-05-07 18:15 59.51394 11.37179 18224 ft 385 kts 356°
2026-05-07 18:15 59.54073 11.37267 17567 ft 389 kts 357°
2026-05-07 18:15 59.56875 11.37348 16942 ft 413 kts 357°
2026-05-07 18:15 59.59780 11.37441 16355 ft 419 kts 357°
2026-05-07 18:16 59.62682 11.37542 15789 ft 418 kts 358°
2026-05-07 18:16 59.65583 11.37644 15229 ft 414 kts 358°
2026-05-07 18:16 59.68426 11.37743 14682 ft 410 kts 358°
2026-05-07 18:16 59.71259 11.37840 14142 ft 407 kts 358°
2026-05-07 18:17 59.74094 11.37936 13570 ft 406 kts 358°
2026-05-07 18:17 59.76885 11.38030 12987 ft 404 kts 358°
2026-05-07 18:17 59.79724 11.38126 12389 ft 402 kts 359°
2026-05-07 18:17 59.82511 11.38221 11832 ft 398 kts 359°
2026-05-07 18:18 59.85279 11.38315 11307 ft 396 kts 359°
2026-05-07 18:18 59.88012 11.38407 10851 ft 393 kts 359°
2026-05-07 18:18 59.90744 11.38499 10401 ft 390 kts 359°
2026-05-07 18:18 59.93457 11.38592 9954 ft 387 kts 359°
2026-05-07 18:19 59.96135 11.38683 9467 ft 385 kts 359°
2026-05-07 18:19 59.98810 11.38774 8985 ft 382 kts 360°
2026-05-07 18:19 60.01459 11.38864 8504 ft 379 kts 360°
2026-05-07 18:19 60.04079 11.38953 8027 ft 376 kts
2026-05-07 18:20 60.06638 11.39042 7568 ft 365 kts
2026-05-07 18:20 60.09140 11.39129 7103 ft 352 kts
2026-05-07 18:20 60.11550 11.39213 6640 ft 341 kts
2026-05-07 18:20 60.13888 11.39293 6157 ft 331 kts
2026-05-07 18:21 60.16151 11.39370 5745 ft 320 kts
2026-05-07 18:21 60.18330 11.39445 5335 ft 304 kts
2026-05-07 18:21 60.20358 11.39515 5206 ft 279 kts
2026-05-07 18:21 60.22216 11.39579 5135 ft 255 kts
2026-05-07 18:22 60.23929 11.39639 5066 ft 238 kts
2026-05-07 18:22 60.25012 11.39676 5023 ft 232 kts
2026-05-07 18:22 60.27150 11.39750 5032 ft 228 kts
2026-05-07 18:22 60.28742 11.39805 5018 ft 229 kts
2026-05-07 18:23 60.30321 11.39859 5006 ft 231 kts
2026-05-07 18:23 60.31927 11.39915 4993 ft 231 kts
2026-05-07 18:23 60.33536 11.39971 4852 ft 231 kts
2026-05-07 18:23 60.35143 11.40027 4697 ft 231 kts
2026-05-07 18:24 60.36744 11.40083 4535 ft 230 kts
2026-05-07 18:24 60.38334 11.40061 4367 ft 226 kts 355°
2026-05-07 18:24 60.39833 11.39242 4206 ft 223 kts 332°
2026-05-07 18:24 60.40963 11.37181 4050 ft 220 kts 300°
2026-05-07 18:25 60.41307 11.34254 4012 ft 211 kts 266°
2026-05-07 18:25 60.41072 11.31338 3993 ft 210 kts 256°
2026-05-07 18:25 60.40716 11.28483 4002 ft 209 kts 255°
2026-05-07 18:25 60.40196 11.25743 3995 ft 208 kts 232°
2026-05-07 18:26 60.39155 11.23753 4002 ft 207 kts 214°
2026-05-07 18:26 60.37878 11.22493 4009 ft 207 kts 198°
2026-05-07 18:26 60.36487 11.21697 4008 ft 207 kts 194°
2026-05-07 18:26 60.35094 11.20925 3882 ft 208 kts 195°
2026-05-07 18:27 60.33713 11.20120 3607 ft 204 kts 196°
2026-05-07 18:27 60.32359 11.19327 3288 ft 200 kts 195°
2026-05-07 18:27 60.31046 11.18565 3000 ft 196 kts 195°
2026-05-07 18:27 60.29752 11.17815 2727 ft 186 kts 195°
2026-05-07 18:28 60.28523 11.17102 2480 ft 181 kts 195°
2026-05-07 18:28 60.27370 11.16435 2252 ft 170 kts 195°
2026-05-07 18:28 60.26233 11.15777 2016 ft 169 kts 195°
2026-05-07 18:28 60.25104 11.15124 1783 ft 169 kts 195°
2026-05-07 18:29 60.23970 11.14475 1567 ft 169 kts 195°
2026-05-07 18:29 60.22834 11.13830 1259 ft 169 kts 195°
2026-05-07 18:29 60.21752 11.13201 1089 ft 154 kts 197°
2026-05-07 18:29 60.20766 11.12630 875 ft 145 kts 195°
2026-05-07 18:30 60.19812 11.12073 700 ft 137 kts 196°
2026-05-07 18:30 60.18967 11.11579 684 ft 101 kts 196°
2026-05-07 18:30 60.18630 11.11384 685 ft 27 kts 199°
2026-05-07 18:30 60.18465 11.11193 685 ft 15 kts 228°
2026-05-07 18:31 60.18442 11.11033 682 ft 0 kts 281°
2026-05-07 18:31 60.18446 11.10995 684 ft 0 kts 283°
2026-05-07 18:31 60.18446 11.10993 684 ft 2 kts 283°
2026-05-07 18:31 60.18452 11.10953 686 ft 1 kts 287°
2026-05-07 18:32 60.18462 11.10880 684 ft 10 kts 284°
2026-05-07 18:32 60.18524 11.10762 686 ft 17 kts
2026-05-07 18:32 60.18632 11.10818 682 ft 19 kts 15°
2026-05-07 18:32 60.18778 11.10905 687 ft 22 kts 16°
2026-05-07 18:33 60.18927 11.10995 687 ft 25 kts 17°
2026-05-07 18:33 60.19081 11.11081 682 ft 19 kts 11°
2026-05-07 18:33 60.19152 11.10940 686 ft 17 kts 287°
2026-05-07 18:33 60.19184 11.10716 686 ft 21 kts 286°
2026-05-07 18:34 60.19225 11.10428 684 ft 17 kts 286°
2026-05-07 18:34 60.19286 11.10275 685 ft 11 kts 306°
2026-05-07 18:34 60.19327 11.10256 685 ft 0 kts 15°
2026-05-07 18:34 60.19333 11.10259 685 ft 0 kts 14°